owner,sensor,date,latitude,longitude,vertical_datum,mass_concentration_of_oxygen_in_sea_water,qcFlag 
DISL,ioos:station:DISL:CATA:1,2010-05-01T00:00:00Z,30.3085,-88.1395,2.221,7.62,1111122 
DISL,ioos:station:DISL:CATA:1,2010-05-01T00:30:00Z,30.3085,-88.1395,2.193,7.66,1111122 
DISL,ioos:station:DISL:CATA:1,2010-05-01T01:00:00Z,30.3085,-88.1395,2.176,7.64,1111122 
DISL,ioos:station:DISL:CATA:1,2010-05-01T01:30:00Z,30.3085,-88.1395,2.159,7.62,1111122 
DISL,ioos:station:DISL:CATA:1,2010-05-01T02:00:00Z,30.3085,-88.1395,2.155,7.59,1111122 
DISL,ioos:station:DISL:CATA:1,2010-05-01T02:30:00Z,30.3085,-88.1395,2.144,7.53,1111122 
DISL,ioos:station:DISL:CATA:1,2010-05-01T03:00:00Z,30.3085,-88.1395,2.131,7.5,1111122 
DISL,ioos:station:DISL:CATA:1,2010-05-01T03:30:00Z,30.3085,-88.1395,2.133,7.49,1111122 
DISL,ioos:station:DISL:CATA:1,2010-05-01T04:00:00Z,30.3085,-88.1395,2.13,7.45,1111122 
DISL,ioos:station:DISL:CATA:1,2010-05-01T04:30:00Z,30.3085,-88.1395,2.137,7.43,1111122 
DISL,ioos:station:DISL:CATA:1,2010-05-01T05:00:00Z,30.3085,-88.1395,2.133,7.4,1111122 
DISL,ioos:station:DISL:CATA:1,2010-05-01T05:30:00Z,30.3085,-88.1395,2.145,7.34,1111122 
DISL,ioos:station:DISL:CATA:1,2010-05-01T06:00:00Z,30.3085,-88.1395,2.167,7.29,1111122 
DISL,ioos:station:DISL:CATA:1,2010-05-01T06:30:00Z,30.3085,-88.1395,2.196,6.48,1111122 
DISL,ioos:station:DISL:CATA:1,2010-05-01T07:00:00Z,30.3085,-88.1395,2.226,7.06,1111122 
DISL,ioos:station:DISL:CATA:1,2010-05-01T07:30:00Z,30.3085,-88.1395,2.247,6.98,1111122 
DISL,ioos:station:DISL:CATA:1,2010-05-01T08:00:00Z,30.3085,-88.1395,2.269,7.17,1111122 
DISL,ioos:station:DISL:CATA:1,2010-05-01T08:30:00Z,30.3085,-88.1395,2.298,7.22,1111122 
DISL,ioos:station:DISL:CATA:1,2010-05-01T09:00:00Z,30.3085,-88.1395,2.34,6.97,1111122 
DISL,ioos:station:DISL:CATA:1,2010-05-01T09:30:00Z,30.3085,-88.1395,2.38,7.03,1111122 
DISL,ioos:station:DISL:CATA:1,2010-05-01T10:00:00Z,30.3085,-88.1395,2.413,6.72,1111122 
DISL,ioos:station:DISL:CATA:1,2010-05-01T10:30:00Z,30.3085,-88.1395,2.44,6.91,1111122 
DISL,ioos:station:DISL:CATA:1,2010-05-01T11:00:00Z,30.3085,-88.1395,2.456,6.04,1111122 
DISL,ioos:station:DISL:CATA:1,2010-05-01T11:30:00Z,30.3085,-88.1395,2.514,6.76,1111122 
DISL,ioos:station:DISL:CATA:1,2010-05-01T12:00:00Z,30.3085,-88.1395,2.556,7.01,1111122 
DISL,ioos:station:DISL:CATA:1,2010-05-01T12:30:00Z,30.3085,-88.1395,2.596,7.03,1111122 
DISL,ioos:station:DISL:CATA:1,2010-05-01T13:00:00Z,30.3085,-88.1395,2.625,7.0,1111122 
DISL,ioos:station:DISL:CATA:1,2010-05-01T13:30:00Z,30.3085,-88.1395,2.659,7.19,1111122 
DISL,ioos:station:DISL:CATA:1,2010-05-01T14:00:00Z,30.3085,-88.1395,2.704,7.19,1111122 
DISL,ioos:station:DISL:CATA:1,2010-05-01T14:30:00Z,30.3085,-88.1395,2.746,7.24,1111122 
DISL,ioos:station:DISL:CATA:1,2010-05-01T15:00:00Z,30.3085,-88.1395,2.779,7.25,1111122 
DISL,ioos:station:DISL:CATA:1,2010-05-01T15:30:00Z,30.3085,-88.1395,2.797,7.24,1111122 
DISL,ioos:station:DISL:CATA:1,2010-05-01T16:00:00Z,30.3085,-88.1395,2.82,7.28,1111122 
DISL,ioos:station:DISL:CATA:1,2010-05-01T16:30:00Z,30.3085,-88.1395,2.834,7.43,1111122 
DISL,ioos:station:DISL:CATA:1,2010-05-01T17:00:00Z,30.3085,-88.1395,2.832,7.42,1111122 
DISL,ioos:station:DISL:CATA:1,2010-05-01T17:30:00Z,30.3085,-88.1395,2.813,7.4,1111122 
DISL,ioos:station:DISL:CATA:1,2010-05-01T18:00:00Z,30.3085,-88.1395,2.815,7.24,1111122 
DISL,ioos:station:DISL:CATA:1,2010-05-01T18:30:00Z,30.3085,-88.1395,2.795,7.39,1111122 
DISL,ioos:station:DISL:CATA:1,2010-05-01T19:00:00Z,30.3085,-88.1395,2.778,7.39,1111122 
DISL,ioos:station:DISL:CATA:1,2010-05-01T19:30:00Z,30.3085,-88.1395,2.749,7.25,1111122 
DISL,ioos:station:DISL:CATA:1,2010-05-01T20:00:00Z,30.3085,-88.1395,2.72,7.55,1111122 
DISL,ioos:station:DISL:CATA:1,2010-05-01T20:30:00Z,30.3085,-88.1395,2.677,7.55,1111122 
DISL,ioos:station:DISL:CATA:1,2010-05-01T21:00:00Z,30.3085,-88.1395,2.629,7.54,1111122 
DISL,ioos:station:DISL:CATA:1,2010-05-01T21:30:00Z,30.3085,-88.1395,2.587,7.48,1111122 
DISL,ioos:station:DISL:CATA:1,2010-05-01T22:00:00Z,30.3085,-88.1395,2.542,7.42,1111122 
DISL,ioos:station:DISL:CATA:1,2010-05-01T22:30:00Z,30.3085,-88.1395,2.502,7.32,1111122 
DISL,ioos:station:DISL:CATA:1,2010-05-01T23:00:00Z,30.3085,-88.1395,2.463,7.35,1111122 
DISL,ioos:station:DISL:CATA:1,2010-05-01T23:30:00Z,30.3085,-88.1395,2.425,7.29,1111122 
DISL,ioos:station:DISL:CATA:1,2010-05-02T00:00:00Z,30.3085,-88.1395,2.395,7.28,1111122 
DISL,ioos:station:DISL:CATA:1,2010-05-02T00:30:00Z,30.3085,-88.1395,2.368,7.26,1111122 
DISL,ioos:station:DISL:CATA:1,2010-05-02T01:00:00Z,30.3085,-88.1395,2.358,7.24,1111122 
DISL,ioos:station:DISL:CATA:1,2010-05-02T01:30:00Z,30.3085,-88.1395,2.331,7.24,1111122 
DISL,ioos:station:DISL:CATA:1,2010-05-02T02:00:00Z,30.3085,-88.1395,2.31,7.2,1111122 
DISL,ioos:station:DISL:CATA:1,2010-05-02T02:30:00Z,30.3085,-88.1395,2.292,7.16,1111122 
DISL,ioos:station:DISL:CATA:1,2010-05-02T03:00:00Z,30.3085,-88.1395,2.274,7.11,1111122 
DISL,ioos:station:DISL:CATA:1,2010-05-02T03:30:00Z,30.3085,-88.1395,2.26,7.34,1111122 
DISL,ioos:station:DISL:CATA:1,2010-05-02T04:00:00Z,30.3085,-88.1395,2.259,7.29,1111122 
DISL,ioos:station:DISL:CATA:1,2010-05-02T04:30:00Z,30.3085,-88.1395,2.259,7.23,1111122 
DISL,ioos:station:DISL:CATA:1,2010-05-02T05:00:00Z,30.3085,-88.1395,2.261,7.12,1111122 
DISL,ioos:station:DISL:CATA:1,2010-05-02T05:30:00Z,30.3085,-88.1395,2.254,7.13,1111122 
DISL,ioos:station:DISL:CATA:1,2010-05-02T06:00:00Z,30.3085,-88.1395,2.266,7.13,1111122 
DISL,ioos:station:DISL:CATA:1,2010-05-02T06:30:00Z,30.3085,-88.1395,2.272,7.11,1111122 
DISL,ioos:station:DISL:CATA:1,2010-05-02T07:00:00Z,30.3085,-88.1395,2.29,7.09,1111122 
DISL,ioos:station:DISL:CATA:1,2010-05-02T07:30:00Z,30.3085,-88.1395,2.308,7.07,1111122 
DISL,ioos:station:DISL:CATA:1,2010-05-02T08:00:00Z,30.3085,-88.1395,2.34,7.06,1111122 
DISL,ioos:station:DISL:CATA:1,2010-05-02T08:30:00Z,30.3085,-88.1395,2.371,6.7,1111122 
DISL,ioos:station:DISL:CATA:1,2010-05-02T09:00:00Z,30.3085,-88.1395,2.384,6.94,1111122 
DISL,ioos:station:DISL:CATA:1,2010-05-02T09:30:00Z,30.3085,-88.1395,2.417,5.81,1111122 
DISL,ioos:station:DISL:CATA:1,2010-05-02T10:00:00Z,30.3085,-88.1395,2.447,6.63,1111122 
DISL,ioos:station:DISL:CATA:1,2010-05-02T10:30:00Z,30.3085,-88.1395,2.464,6.28,1111122 
DISL,ioos:station:DISL:CATA:1,2010-05-02T11:00:00Z,30.3085,-88.1395,2.508,6.62,1111122 
DISL,ioos:station:DISL:CATA:1,2010-05-02T11:30:00Z,30.3085,-88.1395,2.528,6.72,1111122 
DISL,ioos:station:DISL:CATA:1,2010-05-02T12:00:00Z,30.3085,-88.1395,2.563,6.71,1111122 
DISL,ioos:station:DISL:CATA:1,2010-05-02T12:30:00Z,30.3085,-88.1395,2.591,6.73,1111122 
DISL,ioos:station:DISL:CATA:1,2010-05-02T13:00:00Z,30.3085,-88.1395,2.628,6.79,1111122 
DISL,ioos:station:DISL:CATA:1,2010-05-02T13:30:00Z,30.3085,-88.1395,2.674,6.87,1111122 
DISL,ioos:station:DISL:CATA:1,2010-05-02T14:00:00Z,30.3085,-88.1395,2.714,6.91,1111122 
DISL,ioos:station:DISL:CATA:1,2010-05-02T14:30:00Z,30.3085,-88.1395,2.76,7.02,1111122 
DISL,ioos:station:DISL:CATA:1,2010-05-02T15:00:00Z,30.3085,-88.1395,2.792,6.42,1111122 
DISL,ioos:station:DISL:CATA:1,2010-05-02T15:30:00Z,30.3085,-88.1395,2.81,7.05,1111122 
DISL,ioos:station:DISL:CATA:1,2010-05-02T16:00:00Z,30.3085,-88.1395,2.835,6.09,1111122 
DISL,ioos:station:DISL:CATA:1,2010-05-02T16:30:00Z,30.3085,-88.1395,2.841,7.11,1111122 
DISL,ioos:station:DISL:CATA:1,2010-05-02T17:00:00Z,30.3085,-88.1395,2.857,6.95,1111122 
DISL,ioos:station:DISL:CATA:1,2010-05-02T17:30:00Z,30.3085,-88.1395,2.892,7.13,1111122 
DISL,ioos:station:DISL:CATA:1,2010-05-02T18:00:00Z,30.3085,-88.1395,2.881,7.15,1111122 
DISL,ioos:station:DISL:CATA:1,2010-05-02T18:30:00Z,30.3085,-88.1395,2.894,7.15,1111122 
DISL,ioos:station:DISL:CATA:1,2010-05-02T19:00:00Z,30.3085,-88.1395,2.872,7.16,1111122 
DISL,ioos:station:DISL:CATA:1,2010-05-02T19:30:00Z,30.3085,-88.1395,2.843,7.1,1111122 
DISL,ioos:station:DISL:CATA:1,2010-05-02T20:00:00Z,30.3085,-88.1395,2.816,6.81,1111122 
DISL,ioos:station:DISL:CATA:1,2010-05-02T20:30:00Z,30.3085,-88.1395,2.773,6.96,1111122 
DISL,ioos:station:DISL:CATA:1,2010-05-02T21:00:00Z,30.3085,-88.1395,2.742,7.07,1111122 
DISL,ioos:station:DISL:CATA:1,2010-05-02T21:30:00Z,30.3085,-88.1395,2.717,7.09,1111122 
DISL,ioos:station:DISL:CATA:1,2010-05-02T22:00:00Z,30.3085,-88.1395,2.668,7.11,1111122 
DISL,ioos:station:DISL:CATA:1,2010-05-02T22:30:00Z,30.3085,-88.1395,2.629,7.07,1111122 
DISL,ioos:station:DISL:CATA:1,2010-05-02T23:00:00Z,30.3085,-88.1395,2.597,7.17,1111122 
DISL,ioos:station:DISL:CATA:1,2010-05-02T23:30:00Z,30.3085,-88.1395,2.559,6.64,1111122 
DISL,ioos:station:DISL:CATA:1,2010-05-03T00:00:00Z,30.3085,-88.1395,2.554,7.05,1111122 
DISL,ioos:station:DISL:CATA:1,2010-05-03T00:30:00Z,30.3085,-88.1395,2.533,5.96,1111122 
DISL,ioos:station:DISL:CATA:1,2010-05-03T01:00:00Z,30.3085,-88.1395,2.491,6.78,1111122 
DISL,ioos:station:DISL:CATA:1,2010-05-03T01:30:00Z,30.3085,-88.1395,2.477,6.47,1111122 
DISL,ioos:station:DISL:CATA:1,2010-05-03T02:00:00Z,30.3085,-88.1395,2.452,7.05,1111122 
DISL,ioos:station:DISL:CATA:1,2010-05-03T02:30:00Z,30.3085,-88.1395,2.431,7.07,1111122 
DISL,ioos:station:DISL:CATA:1,2010-05-03T03:00:00Z,30.3085,-88.1395,2.395,7.06,1111122 
DISL,ioos:station:DISL:CATA:1,2010-05-03T03:30:00Z,30.3085,-88.1395,2.39,7.05,1111122 
DISL,ioos:station:DISL:CATA:1,2010-05-03T04:00:00Z,30.3085,-88.1395,2.357,7.02,1111122 
DISL,ioos:station:DISL:CATA:1,2010-05-03T04:30:00Z,30.3085,-88.1395,2.347,7.07,1111122 
DISL,ioos:station:DISL:CATA:1,2010-05-03T05:00:00Z,30.3085,-88.1395,2.333,7.13,1111122 
DISL,ioos:station:DISL:CATA:1,2010-05-03T05:30:00Z,30.3085,-88.1395,2.332,7.15,1111122 
DISL,ioos:station:DISL:CATA:1,2010-05-03T06:00:00Z,30.3085,-88.1395,2.326,7.01,1111122 
DISL,ioos:station:DISL:CATA:1,2010-05-03T06:30:00Z,30.3085,-88.1395,2.343,7.16,1111122 
DISL,ioos:station:DISL:CATA:1,2010-05-03T07:00:00Z,30.3085,-88.1395,2.35,6.21,1111122 
DISL,ioos:station:DISL:CATA:1,2010-05-03T07:30:00Z,30.3085,-88.1395,2.366,6.91,1111122 
DISL,ioos:station:DISL:CATA:1,2010-05-03T08:00:00Z,30.3085,-88.1395,2.377,6.0,1111122 
DISL,ioos:station:DISL:CATA:1,2010-05-03T08:30:00Z,30.3085,-88.1395,2.402,6.69,1111122 
DISL,ioos:station:DISL:CATA:1,2010-05-03T09:00:00Z,30.3085,-88.1395,2.422,6.49,1111122 
DISL,ioos:station:DISL:CATA:1,2010-05-03T09:30:00Z,30.3085,-88.1395,2.441,6.43,1111122 
DISL,ioos:station:DISL:CATA:1,2010-05-03T10:00:00Z,30.3085,-88.1395,2.452,6.91,1111122 
DISL,ioos:station:DISL:CATA:1,2010-05-03T10:30:00Z,30.3085,-88.1395,2.471,6.86,1111122 
DISL,ioos:station:DISL:CATA:1,2010-05-03T11:00:00Z,30.3085,-88.1395,2.491,6.91,1111122 
DISL,ioos:station:DISL:CATA:1,2010-05-03T11:30:00Z,30.3085,-88.1395,2.495,6.83,1111122 
DISL,ioos:station:DISL:CATA:1,2010-05-03T12:00:00Z,30.3085,-88.1395,2.523,6.89,1111122 
DISL,ioos:station:DISL:CATA:1,2010-05-03T12:30:00Z,30.3085,-88.1395,2.558,6.67,1111122 
DISL,ioos:station:DISL:CATA:1,2010-05-03T13:00:00Z,30.3085,-88.1395,2.584,7.0,1111122 
DISL,ioos:station:DISL:CATA:1,2010-05-03T13:30:00Z,30.3085,-88.1395,2.611,5.96,1111122 
DISL,ioos:station:DISL:CATA:1,2010-05-03T14:00:00Z,30.3085,-88.1395,2.692,6.96,1111122 
DISL,ioos:station:DISL:CATA:1,2010-05-03T14:30:00Z,30.3085,-88.1395,2.733,6.66,1111122 
DISL,ioos:station:DISL:CATA:1,2010-05-03T15:00:00Z,30.3085,-88.1395,2.715,6.84,1111122 
DISL,ioos:station:DISL:CATA:1,2010-05-03T15:30:00Z,30.3085,-88.1395,2.741,6.82,1111122 
DISL,ioos:station:DISL:CATA:1,2010-05-03T16:00:00Z,30.3085,-88.1395,2.743,6.55,1111122 
DISL,ioos:station:DISL:CATA:1,2010-05-03T16:30:00Z,30.3085,-88.1395,2.758,7.01,1111122 
DISL,ioos:station:DISL:CATA:1,2010-05-03T17:00:00Z,30.3085,-88.1395,2.763,6.74,1111122 
DISL,ioos:station:DISL:CATA:1,2010-05-03T17:30:00Z,30.3085,-88.1395,2.741,6.78,1111122 
DISL,ioos:station:DISL:CATA:1,2010-05-03T18:00:00Z,30.3085,-88.1395,2.729,6.94,1111122 
DISL,ioos:station:DISL:CATA:1,2010-05-03T18:30:00Z,30.3085,-88.1395,2.703,6.96,1111122 
DISL,ioos:station:DISL:CATA:1,2010-05-03T19:00:00Z,30.3085,-88.1395,2.681,6.33,1111122 
DISL,ioos:station:DISL:CATA:1,2010-05-03T19:30:00Z,30.3085,-88.1395,2.658,6.91,1111122 
DISL,ioos:station:DISL:CATA:1,2010-05-03T20:00:00Z,30.3085,-88.1395,2.654,6.15,1111122 
DISL,ioos:station:DISL:CATA:1,2010-05-03T20:30:00Z,30.3085,-88.1395,2.632,7.5,1111122 
DISL,ioos:station:DISL:CATA:1,2010-05-03T21:00:00Z,30.3085,-88.1395,2.604,7.85,1111122 
DISL,ioos:station:DISL:CATA:1,2010-05-03T21:30:00Z,30.3085,-88.1395,2.576,7.97,1111122 
DISL,ioos:station:DISL:CATA:1,2010-05-03T22:00:00Z,30.3085,-88.1395,2.534,7.81,1111122 
DISL,ioos:station:DISL:CATA:1,2010-05-03T22:30:00Z,30.3085,-88.1395,2.538,7.83,1111122 
DISL,ioos:station:DISL:CATA:1,2010-05-03T23:00:00Z,30.3085,-88.1395,2.526,7.75,1111122 
DISL,ioos:station:DISL:CATA:1,2010-05-03T23:30:00Z,30.3085,-88.1395,2.484,7.78,1111122 
DISL,ioos:station:DISL:CATA:1,2010-05-04T00:00:00Z,30.3085,-88.1395,2.452,7.79,1111122 
DISL,ioos:station:DISL:CATA:1,2010-05-04T00:30:00Z,30.3085,-88.1395,2.443,7.65,1111122 
DISL,ioos:station:DISL:CATA:1,2010-05-04T01:00:00Z,30.3085,-88.1395,2.421,7.66,1111122 
DISL,ioos:station:DISL:CATA:1,2010-05-04T01:30:00Z,30.3085,-88.1395,2.379,7.01,1111122 
DISL,ioos:station:DISL:CATA:1,2010-05-04T02:00:00Z,30.3085,-88.1395,2.335,7.43,1111122 
DISL,ioos:station:DISL:CATA:1,2010-05-04T02:30:00Z,30.3085,-88.1395,2.316,6.47,1111122 
DISL,ioos:station:DISL:CATA:1,2010-05-04T03:00:00Z,30.3085,-88.1395,2.303,7.59,1111122 
DISL,ioos:station:DISL:CATA:1,2010-05-04T03:30:00Z,30.3085,-88.1395,2.278,7.38,1111122 
DISL,ioos:station:DISL:CATA:1,2010-05-04T04:00:00Z,30.3085,-88.1395,2.255,7.54,1111122 
DISL,ioos:station:DISL:CATA:1,2010-05-04T04:30:00Z,30.3085,-88.1395,2.247,7.54,1111122 
DISL,ioos:station:DISL:CATA:1,2010-05-04T05:00:00Z,30.3085,-88.1395,2.249,7.54,1111122 
DISL,ioos:station:DISL:CATA:1,2010-05-04T05:30:00Z,30.3085,-88.1395,2.253,7.55,1111122 
DISL,ioos:station:DISL:CATA:1,2010-05-04T06:00:00Z,30.3085,-88.1395,2.248,7.46,1111122 
DISL,ioos:station:DISL:CATA:1,2010-05-04T06:30:00Z,30.3085,-88.1395,2.236,7.42,1111122 
DISL,ioos:station:DISL:CATA:1,2010-05-04T07:00:00Z,30.3085,-88.1395,2.24,7.29,1111122 
DISL,ioos:station:DISL:CATA:1,2010-05-04T07:30:00Z,30.3085,-88.1395,2.235,7.37,1111122 
DISL,ioos:station:DISL:CATA:1,2010-05-04T08:00:00Z,30.3085,-88.1395,2.22,6.4,1111122 
DISL,ioos:station:DISL:CATA:1,2010-05-04T08:30:00Z,30.3085,-88.1395,2.234,7.05,1111122 
DISL,ioos:station:DISL:CATA:1,2010-05-04T09:00:00Z,30.3085,-88.1395,2.247,6.4,1111122 
DISL,ioos:station:DISL:CATA:1,2010-05-04T09:30:00Z,30.3085,-88.1395,2.251,6.81,1111122 
DISL,ioos:station:DISL:CATA:1,2010-05-04T10:00:00Z,30.3085,-88.1395,2.26,7.28,1111122 
DISL,ioos:station:DISL:CATA:1,2010-05-04T10:30:00Z,30.3085,-88.1395,2.307,7.34,1111122 
DISL,ioos:station:DISL:CATA:1,2010-05-04T11:00:00Z,30.3085,-88.1395,2.327,7.35,1111122 
DISL,ioos:station:DISL:CATA:1,2010-05-04T11:30:00Z,30.3085,-88.1395,2.35,7.08,1111122 
DISL,ioos:station:DISL:CATA:1,2010-05-04T12:00:00Z,30.3085,-88.1395,2.365,7.08,1111122 
DISL,ioos:station:DISL:CATA:1,2010-05-04T12:30:00Z,30.3085,-88.1395,2.396,6.52,1111122 
DISL,ioos:station:DISL:CATA:1,2010-05-04T13:00:00Z,30.3085,-88.1395,2.417,6.81,1111122 
DISL,ioos:station:DISL:CATA:1,2010-05-04T13:30:00Z,30.3085,-88.1395,2.437,6.31,1111122 
DISL,ioos:station:DISL:CATA:1,2010-05-04T14:00:00Z,30.3085,-88.1395,2.457,6.68,1111122 
DISL,ioos:station:DISL:CATA:1,2010-05-04T14:30:00Z,30.3085,-88.1395,2.444,6.22,1111122 
DISL,ioos:station:DISL:CATA:1,2010-05-04T15:00:00Z,30.3085,-88.1395,2.45,7.14,1111122 
DISL,ioos:station:DISL:CATA:1,2010-05-04T15:30:00Z,30.3085,-88.1395,2.488,7.19,1111122 
DISL,ioos:station:DISL:CATA:1,2010-05-04T16:00:00Z,30.3085,-88.1395,2.498,6.75,1111122 
DISL,ioos:station:DISL:CATA:1,2010-05-04T16:30:00Z,30.3085,-88.1395,2.501,6.57,1111122 
DISL,ioos:station:DISL:CATA:1,2010-05-04T17:00:00Z,30.3085,-88.1395,2.517,5.38,1111122 
DISL,ioos:station:DISL:CATA:1,2010-05-04T17:30:00Z,30.3085,-88.1395,2.54,4.52,1111122 
DISL,ioos:station:DISL:CATA:1,2010-05-04T18:00:00Z,30.3085,-88.1395,2.542,4.42,1111122 
DISL,ioos:station:DISL:CATA:1,2010-05-04T18:30:00Z,30.3085,-88.1395,2.535,4.6,1111122 
DISL,ioos:station:DISL:CATA:1,2010-05-04T19:00:00Z,30.3085,-88.1395,2.531,3.94,1111122 
DISL,ioos:station:DISL:CATA:1,2010-05-04T19:30:00Z,30.3085,-88.1395,2.554,4.24,1111122 
DISL,ioos:station:DISL:CATA:1,2010-05-04T20:00:00Z,30.3085,-88.1395,2.542,3.46,1111122 
DISL,ioos:station:DISL:CATA:1,2010-05-04T20:30:00Z,30.3085,-88.1395,2.513,3.84,1111122 
DISL,ioos:station:DISL:CATA:1,2010-05-04T21:00:00Z,30.3085,-88.1395,2.493,3.82,1111122 
DISL,ioos:station:DISL:CATA:1,2010-05-04T21:30:00Z,30.3085,-88.1395,2.488,3.26,1111122 
DISL,ioos:station:DISL:CATA:1,2010-05-04T22:00:00Z,30.3085,-88.1395,2.467,3.18,1111122 
DISL,ioos:station:DISL:CATA:1,2010-05-04T22:30:00Z,30.3085,-88.1395,2.452,3.2,1111122 
DISL,ioos:station:DISL:CATA:1,2010-05-04T23:00:00Z,30.3085,-88.1395,2.432,3.59,1111122 
DISL,ioos:station:DISL:CATA:1,2010-05-04T23:30:00Z,30.3085,-88.1395,2.413,5.78,1111122 
DISL,ioos:station:DISL:CATA:1,2010-05-05T00:00:00Z,30.3085,-88.1395,2.403,8.52,1111122 
DISL,ioos:station:DISL:CATA:1,2010-05-05T00:30:00Z,30.3085,-88.1395,2.389,9.34,1111122 
DISL,ioos:station:DISL:CATA:1,2010-05-05T01:00:00Z,30.3085,-88.1395,2.366,9.55,1111122 
DISL,ioos:station:DISL:CATA:1,2010-05-05T01:30:00Z,30.3085,-88.1395,2.335,8.14,1111122 
DISL,ioos:station:DISL:CATA:1,2010-05-05T02:00:00Z,30.3085,-88.1395,2.303,9.47,1111122 
DISL,ioos:station:DISL:CATA:1,2010-05-05T02:30:00Z,30.3085,-88.1395,2.275,7.61,1111122 
DISL,ioos:station:DISL:CATA:1,2010-05-05T03:00:00Z,30.3085,-88.1395,2.253,9.31,1111122 
DISL,ioos:station:DISL:CATA:1,2010-05-05T03:30:00Z,30.3085,-88.1395,2.225,8.81,1111122 
DISL,ioos:station:DISL:CATA:1,2010-05-05T04:00:00Z,30.3085,-88.1395,2.201,9.07,1111122 
DISL,ioos:station:DISL:CATA:1,2010-05-05T04:30:00Z,30.3085,-88.1395,2.185,8.93,1111122 
DISL,ioos:station:DISL:CATA:1,2010-05-05T05:00:00Z,30.3085,-88.1395,2.175,8.74,1111122 
DISL,ioos:station:DISL:CATA:1,2010-05-05T05:30:00Z,30.3085,-88.1395,2.174,8.74,1111122 
DISL,ioos:station:DISL:CATA:1,2010-05-05T06:00:00Z,30.3085,-88.1395,2.172,8.74,1111122 
DISL,ioos:station:DISL:CATA:1,2010-05-05T06:30:00Z,30.3085,-88.1395,2.175,8.79,1111122 
DISL,ioos:station:DISL:CATA:1,2010-05-05T07:30:00Z,30.3085,-88.1395,2.174,8.72,1111122 
DISL,ioos:station:DISL:CATA:1,2010-05-05T07:30:00Z,30.3085,-88.1395,2.188,8.6,1111122 
DISL,ioos:station:DISL:CATA:1,2010-05-05T08:00:00Z,30.3085,-88.1395,2.2,7.06,1111122 
DISL,ioos:station:DISL:CATA:1,2010-05-05T08:30:00Z,30.3085,-88.1395,2.203,8.68,1111122 
DISL,ioos:station:DISL:CATA:1,2010-05-05T09:00:00Z,30.3085,-88.1395,2.219,7.08,1111122 
DISL,ioos:station:DISL:CATA:1,2010-05-05T09:30:00Z,30.3085,-88.1395,2.238,8.57,1111122 
DISL,ioos:station:DISL:CATA:1,2010-05-05T10:00:00Z,30.3085,-88.1395,2.251,8.06,1111122 
DISL,ioos:station:DISL:CATA:1,2010-05-05T10:30:00Z,30.3085,-88.1395,2.261,8.49,1111122 
DISL,ioos:station:DISL:CATA:1,2010-05-05T11:00:00Z,30.3085,-88.1395,2.281,8.36,1111122 
DISL,ioos:station:DISL:CATA:1,2010-05-05T11:30:00Z,30.3085,-88.1395,2.317,8.24,1111122 
DISL,ioos:station:DISL:CATA:1,2010-05-05T12:00:00Z,30.3085,-88.1395,2.347,8.08,1111122 
DISL,ioos:station:DISL:CATA:1,2010-05-05T12:30:00Z,30.3085,-88.1395,2.376,8.11,1111122 
DISL,ioos:station:DISL:CATA:1,2010-05-05T13:30:00Z,30.3085,-88.1395,2.394,8.06,1111122 
DISL,ioos:station:DISL:CATA:1,2010-05-05T13:30:00Z,30.3085,-88.1395,2.417,8.14,1111122 
DISL,ioos:station:DISL:CATA:1,2010-05-05T14:00:00Z,30.3085,-88.1395,2.43,8.36,1111122 
DISL,ioos:station:DISL:CATA:1,2010-05-05T14:30:00Z,30.3085,-88.1395,2.45,8.46,1111122 
DISL,ioos:station:DISL:CATA:1,2010-05-05T15:00:00Z,30.3085,-88.1395,2.47,8.64,1111122 
DISL,ioos:station:DISL:CATA:1,2010-05-05T15:30:00Z,30.3085,-88.1395,2.476,7.11,1111122 
DISL,ioos:station:DISL:CATA:1,2010-05-05T16:00:00Z,30.3085,-88.1395,2.494,7.25,1111122 
DISL,ioos:station:DISL:CATA:1,2010-05-05T16:30:00Z,30.3085,-88.1395,2.499,5.18,1111122 
DISL,ioos:station:DISL:CATA:1,2010-05-05T17:00:00Z,30.3085,-88.1395,2.508,5.45,1111122 
DISL,ioos:station:DISL:CATA:1,2010-05-05T17:30:00Z,30.3085,-88.1395,2.523,5.62,1111122 
DISL,ioos:station:DISL:CATA:1,2010-05-05T18:00:00Z,30.3085,-88.1395,2.524,5.03,1111122 
DISL,ioos:station:DISL:CATA:1,2010-05-05T18:30:00Z,30.3085,-88.1395,2.525,5.1,1111122 
DISL,ioos:station:DISL:CATA:1,2010-05-05T19:00:00Z,30.3085,-88.1395,2.532,5.25,1111122 
DISL,ioos:station:DISL:CATA:1,2010-05-05T19:30:00Z,30.3085,-88.1395,2.521,5.33,1111122 
DISL,ioos:station:DISL:CATA:1,2010-05-05T20:00:00Z,30.3085,-88.1395,2.515,5.44,1111122 
DISL,ioos:station:DISL:CATA:1,2010-05-05T20:30:00Z,30.3085,-88.1395,2.505,5.62,1111122 
DISL,ioos:station:DISL:CATA:1,2010-05-05T21:00:00Z,30.3085,-88.1395,2.491,4.82,1111122 
DISL,ioos:station:DISL:CATA:1,2010-05-05T21:30:00Z,30.3085,-88.1395,2.48,4.24,1111122 
DISL,ioos:station:DISL:CATA:1,2010-05-05T22:00:00Z,30.3085,-88.1395,2.461,3.14,1111122 
DISL,ioos:station:DISL:CATA:1,2010-05-05T22:30:00Z,30.3085,-88.1395,2.443,3.87,1111122 
DISL,ioos:station:DISL:CATA:1,2010-05-05T23:00:00Z,30.3085,-88.1395,2.433,3.48,1111122 
DISL,ioos:station:DISL:CATA:1,2010-05-05T23:30:00Z,30.3085,-88.1395,2.416,4.31,1111122 
DISL,ioos:station:DISL:CATA:1,2010-05-06T00:00:00Z,30.3085,-88.1395,2.397,3.91,1111122 
DISL,ioos:station:DISL:CATA:1,2010-05-06T00:30:00Z,30.3085,-88.1395,2.377,3.88,1111122 
DISL,ioos:station:DISL:CATA:1,2010-05-06T01:00:00Z,30.3085,-88.1395,2.36,4.42,1111122 
DISL,ioos:station:DISL:CATA:1,2010-05-06T01:30:00Z,30.3085,-88.1395,2.352,5.57,1111122 
DISL,ioos:station:DISL:CATA:1,2010-05-06T02:00:00Z,30.3085,-88.1395,2.331,6.46,1111122 
DISL,ioos:station:DISL:CATA:1,2010-05-06T02:30:00Z,30.3085,-88.1395,2.306,6.92,1111122 
DISL,ioos:station:DISL:CATA:1,2010-05-06T03:00:00Z,30.3085,-88.1395,2.282,6.74,1111122 
DISL,ioos:station:DISL:CATA:1,2010-05-06T03:30:00Z,30.3085,-88.1395,2.255,6.54,1111122 
DISL,ioos:station:DISL:CATA:1,2010-05-06T04:00:00Z,30.3085,-88.1395,2.233,6.92,1111122 
DISL,ioos:station:DISL:CATA:1,2010-05-06T04:30:00Z,30.3085,-88.1395,2.216,5.93,1111122 
DISL,ioos:station:DISL:CATA:1,2010-05-06T05:00:00Z,30.3085,-88.1395,2.204,6.97,1111122 
DISL,ioos:station:DISL:CATA:1,2010-05-06T05:30:00Z,30.3085,-88.1395,2.198,5.24,1111122 
DISL,ioos:station:DISL:CATA:1,2010-05-06T06:30:00Z,30.3085,-88.1395,2.198,7.01,1111122 
DISL,ioos:station:DISL:CATA:1,2010-05-06T06:30:00Z,30.3085,-88.1395,2.197,6.88,1111122 
DISL,ioos:station:DISL:CATA:1,2010-05-06T07:00:00Z,30.3085,-88.1395,2.198,7.35,1111122 
DISL,ioos:station:DISL:CATA:1,2010-05-06T07:30:00Z,30.3085,-88.1395,2.205,7.7,1111122 
DISL,ioos:station:DISL:CATA:1,2010-05-06T08:00:00Z,30.3085,-88.1395,2.198,5.97,1111122 
DISL,ioos:station:DISL:CATA:1,2010-05-06T08:30:00Z,30.3085,-88.1395,2.189,6.38,1111122 
DISL,ioos:station:DISL:CATA:1,2010-05-06T09:00:00Z,30.3085,-88.1395,2.191,5.55,1111122 
DISL,ioos:station:DISL:CATA:1,2010-05-06T09:30:00Z,30.3085,-88.1395,2.211,5.59,1111122 
DISL,ioos:station:DISL:CATA:1,2010-05-06T10:00:00Z,30.3085,-88.1395,2.224,7.0,1111122 
DISL,ioos:station:DISL:CATA:1,2010-05-06T10:30:00Z,30.3085,-88.1395,2.243,6.61,1111122 
DISL,ioos:station:DISL:CATA:1,2010-05-06T11:00:00Z,30.3085,-88.1395,2.262,7.85,1111122 
DISL,ioos:station:DISL:CATA:1,2010-05-06T11:30:00Z,30.3085,-88.1395,2.278,8.1,1111122 
DISL,ioos:station:DISL:CATA:1,2010-05-06T12:00:00Z,30.3085,-88.1395,2.303,6.87,1111122 
DISL,ioos:station:DISL:CATA:1,2010-05-06T12:30:00Z,30.3085,-88.1395,2.312,7.7,1111122 
DISL,ioos:station:DISL:CATA:1,2010-05-06T13:00:00Z,30.3085,-88.1395,2.329,5.94,1111122 
DISL,ioos:station:DISL:CATA:1,2010-05-06T13:30:00Z,30.3085,-88.1395,2.343,7.05,1111122 
DISL,ioos:station:DISL:CATA:1,2010-05-06T14:00:00Z,30.3085,-88.1395,2.364,6.89,1111122 
DISL,ioos:station:DISL:CATA:1,2010-05-06T14:30:00Z,30.3085,-88.1395,2.39,7.57,1111122 
DISL,ioos:station:DISL:CATA:1,2010-05-06T15:00:00Z,30.3085,-88.1395,2.4,7.75,1111122 
DISL,ioos:station:DISL:CATA:1,2010-05-06T15:30:00Z,30.3085,-88.1395,2.405,7.62,1111122 